Location: Taupo
(38.6830°S, 176.0830°E)
Time: 04:06:52
(UTC+13:00)

CZ-4C R/B - Pass Details

Date: 24 January 2019
Orbit: 653 x 1349 km, 63.4° (Epoch: 21 October)

Event Time Altitude Azimuth Distance (km) Brightness Sun altitude
Rises 22:01:53 0° 205° (SSW) 3,644 6.7 -14.7°
Reaches altitude 10° 22:06:04 10° 180° (S) 2,528 5.2 -15.3°
Maximum altitude 22:08:55 14° 150° (SSE) 2,163 4.5 -15.7°
Drops below altitude 10° 22:11:35 10° 119° (ESE) 2,321 4.3 -16.1°
Enters shadow 22:13:03 - 106° (ESE) 2,597 4.4 -16.3°
